This is the latest recevied weather packets stored in our database for station/object W6MAF. If no packets are shown the sender has not sent any weather packets the latest 10 day(s).
| Time | Temp. | Humidity | Pressure | Rain* | Wind** | Luminosity | Snow |
|---|---|---|---|---|---|---|---|
| 1777892104 | 6.11° C | 91% | - | 0 mm | 4.92 m/s, 163° | - | - |
| 1777891850 | 6.11° C | 91% | - | 0 mm | 7.15 m/s, 174° | - | - |
| 1777891805 | 6.11° C | 91% | - | 0 mm | 7.15 m/s, 174° | - | - |
| 1777891508 | 6.11° C | 90% | - | 0 mm | 5.36 m/s, 201° | - | - |
| 1777891207 | 6.11° C | 90% | - | 0 mm | 5.36 m/s, 211° | - | - |
| 1777890911 | 6.11° C | 90% | - | 0 mm | 5.36 m/s, 211° | - | - |
| 1777890611 | 6.11° C | 90% | - | 0 mm | 4.92 m/s, 208° | - | - |
| 1777890314 | 6.11° C | 90% | - | 0 mm | 5.36 m/s, 208° | - | - |
| 1777890017 | 6.11° C | 89% | - | 0 mm | 4.92 m/s, 212° | - | - |
| 1777889718 | 6.11° C | 88% | - | 0 mm | 5.81 m/s, 193° | - | - |
| 1777889417 | 6.11° C | 87% | - | 0 mm | 4.02 m/s, 180° | - | - |
| 1777889120 | 6.11° C | 87% | - | 0 mm | 5.36 m/s, 212° | - | - |
| 1777888822 | 6.11° C | 87% | - | 0 mm | 4.92 m/s, 212° | - | - |
| 1777888524 | 6.11° C | 86% | - | 0 mm | 4.02 m/s, 210° | - | - |
| 1777888227 | 6.67° C | 85% | - | 0 mm | 4.02 m/s, 179° | - | - |
| 1777887929 | 6.67° C | 84% | - | 0 mm | 4.92 m/s, 226° | - | - |
| 1777887628 | 6.67° C | 84% | - | 0 mm | 4.47 m/s, 221° | - | - |
| 1777887330 | 6.67° C | 84% | - | 0 mm | 4.02 m/s, 205° | - | - |
| 1777887033 | 6.67° C | 83% | - | 0 mm | 5.36 m/s, 184° | - | - |
| 1777886735 | 6.67° C | 81% | - | 0 mm | 4.02 m/s, 193° | - | - |
| 1777886437 | 6.67° C | 81% | - | 0 mm | 4.02 m/s, 211° | - | - |
| 1777886140 | 6.67° C | 81% | - | 0 mm | 4.02 m/s, 200° | - | - |
| 1777885541 | 7.22° C | 79% | - | 0 mm | 4.92 m/s, 194° | - | - |
| 1777885243 | 7.22° C | 78% | - | 0 mm | 4.47 m/s, 214° | - | - |
| 1777884946 | 7.22° C | 78% | - | 0 mm | 5.81 m/s, 229° | - | - |
* Rain latest hour (hover to see other rain measurements)
** Current wind speed in m/s (hover to see current wind gust speed)